Date,TemperatureHighF,TemperatureAvgF,TemperatureLowF,DewpointHighF,DewpointAvgF,DewpointLowF,HumidityHigh,HumidityAvg,HumidityLow,PressureMaxIn,PressureMinIn,WindSpeedMaxMPH,WindSpeedAvgMPH,GustSpeedMaxMPH,PrecipitationSumIn
2014-1-1,3.2,-0.4,-1.5,-4.7,-7.2,-8.9,77,72,67,30.39,30.33,12,6,0,0.00
2014-1-2,7.4,5.6,4.8,2.3,0.5,-1.8,88,79,70,30.36,30.30,11,7,0,0.00
2014-1-3,17.9,13.3,5.1,14.1,8.1,-4.1,88,80,62,30.30,29.80,19,12,0,0.00
2014-1-4,32.6,24.1,13.9,27.2,17.2,6.0,88,75,61,30.11,29.71,16,7,0,0.00
2014-1-5,13.8,3.2,-10.3,5.9,-5.9,-16.8,74,65,52,30.22,30.10,18,8,0,0.00
2014-1-6,-10.1,-14.6,-18.9,-15.8,-21.0,-29.5,87,72,53,30.23,30.13,18,7,0,0.00
2014-1-7,2.7,-7.6,-16.5,-5.9,-13.5,-19.1,95,76,46,30.29,30.17,10,3,0,0.00
2014-1-8,10.3,-2.7,-12.0,2.8,-7.2,-15.1,100,84,40,30.53,30.28,7,1,0,0.00
2014-1-9,21.7,3.6,-15.5,21.7,0.4,-17.1,100,88,61,30.55,30.09,7,3,0,0.00
2014-1-10,35.5,29.2,21.7,35.5,29.2,21.7,100,100,100,30.09,29.49,11,5,0,0.04
2014-1-11,35.2,31.3,27.0,35.2,29.4,25.5,100,93,79,29.78,29.45,11,4,0,0.00
2014-1-12,41.2,33.7,24.7,34.8,28.1,23.4,100,81,49,29.80,29.56,17,7,0,0.00
2014-1-13,43.1,33.9,24.1,34.5,28.2,19.8,97,80,52,29.76,29.54,12,3,0,0.00
2014-1-14,34.0,25.6,14.5,33.5,23.9,10.2,100,93,79,29.91,29.52,19,8,0,0.00
2014-1-15,17.8,12.5,9.8,13.8,6.4,-1.5,85,76,54,30.06,29.69,15,6,0,0.00
2014-1-16,34.1,23.8,10.2,32.8,18.8,2.4,99,81,62,29.75,29.43,16,6,0,0.00
2014-1-17,18.8,12.8,5.9,13.0,7.6,1.9,100,80,69,29.94,29.74,12,4,0,0.00
2014-1-18,16.8,8.9,1.3,13.6,6.6,1.3,100,91,68,29.91,29.78,9,2,0,0.00
2014-1-19,34.5,24.5,8.7,27.8,18.5,8.7,100,80,46,29.86,29.51,12,4,0,0.00
2014-1-20,33.2,17.4,4.4,27.6,12.9,-5.0,96,83,63,30.22,29.64,13,6,0,0.00
2014-1-21,4.7,-0.8,-6.4,-2.9,-8.1,-13.8,95,71,48,30.37,30.14,13,4,0,0.00
2014-1-22,11.6,3.7,-3.2,4.0,-2.9,-11.0,90,74,59,30.21,29.89,19,6,0,0.00
2014-1-23,6.0,-1.9,-9.1,-5.9,-9.5,-13.1,84,70,53,30.56,30.21,17,6,0,0.00
2014-1-24,30.2,12.6,-9.9,29.6,5.3,-12.7,100,74,54,30.45,29.41,17,8,0,0.00
2014-1-25,31.3,12.7,3.0,30.2,-2.4,-12.4,98,52,27,29.88,29.41,22,8,0,0.00
2014-1-26,23.3,10.8,1.8,17.8,5.1,-6.9,95,78,61,29.88,29.38,23,6,0,0.00
2014-1-27,1.9,-6.3,-13.4,-5.3,-15.0,-22.8,84,66,44,30.41,29.88,19,6,0,0.00
2014-1-28,3.3,-6.7,-16.3,-8.0,-14.1,-19.1,95,71,43,30.40,30.16,13,5,0,0.00
2014-1-29,22.9,9.4,-4.7,9.2,-1.8,-11.2,88,62,33,30.16,29.85,15,6,0,0.00
2014-1-30,30.1,24.2,14.5,28.9,16.5,7.7,100,73,54,29.94,29.57,17,8,0,0.00
2014-1-31,14.9,7.5,1.5,8.6,0.7,-6.2,100,75,46,30.15,29.93,8,2,0,0.00
2014-2-1,19.1,12.3,4.4,15.9,8.1,0.2,100,83,63,30.11,29.93,10,3,0,0.00
2014-2-2,16.5,7.6,-2.6,9.4,2.0,-5.9,100,81,43,30.31,30.10,7,2,0,0.00
2014-2-3,20.0,6.3,-12.4,6.5,-1.7,-12.4,100,74,33,30.36,30.27,9,2,0,0.00
2014-2-4,17.4,10.7,-0.4,11.1,5.5,-0.6,100,81,56,30.42,30.20,11,3,0,0.00
2014-2-5,16.9,12.8,1.2,13.5,7.1,-0.8,97,78,56,30.43,30.17,14,6,0,0.00
2014-2-6,6.8,-0.2,-7.4,-1.6,-7.3,-12.8,100,73,48,30.41,30.28,11,4,0,0.00
2014-2-7,13.5,3.6,-5.2,-0.1,-4.5,-10.6,98,71,36,30.31,30.21,13,4,0,0.00
2014-2-8,14.0,5.2,-9.8,10.4,3.0,-9.8,100,91,64,30.28,30.09,8,1,0,0.00
2014-2-9,17.5,7.6,-1.4,8.2,1.1,-8.3,100,77,50,30.32,30.10,10,4,0,0.00
2014-2-10,8.7,-0.0,-7.8,-2.5,-8.5,-19.6,94,69,38,30.47,30.31,8,2,0,0.00
2014-2-11,13.7,1.0,-11.9,-3.1,-8.0,-18.3,100,70,27,30.52,30.29,10,3,0,0.00
2014-2-12,19.2,10.0,-0.1,14.6,4.6,-5.8,100,79,62,30.30,29.96,9,3,0,0.00
2014-2-13,29.4,20.9,14.5,25.2,15.1,7.9,99,78,63,29.96,29.50,15,7,0,0.00
2014-2-14,21.3,13.7,6.0,11.5,6.0,2.0,100,73,51,29.97,29.64,15,6,0,0.00
2014-2-15,20.0,10.4,-5.5,15.7,4.3,-7.2,100,78,43,30.08,29.92,10,3,0,0.00
2014-2-16,21.0,15.5,12.5,15.4,10.2,3.7,100,81,51,30.25,29.93,12,4,0,0.00
2014-2-17,24.4,21.6,15.6,23.7,19.9,12.0,100,93,77,30.22,29.71,17,5,0,0.00
2014-2-18,44.2,29.9,13.6,31.3,22.9,13.6,100,78,39,29.89,29.59,14,4,0,0.04
2014-2-19,46.8,35.2,26.0,29.6,23.1,10.2,100,65,24,29.91,29.67,11,4,0,0.00
2014-2-20,40.3,34.4,32.1,40.3,33.1,26.1,100,95,75,29.88,29.07,17,7,0,0.51
2014-2-21,34.6,22.3,17.4,30.6,12.9,8.0,86,67,49,29.78,29.16,21,10,0,0.00
2014-2-22,29.0,19.5,11.5,11.1,6.9,0.5,80,60,36,30.05,29.78,14,5,0,0.00
2014-2-23,25.4,13.7,6.7,6.1,3.0,-4.7,83,64,35,30.18,30.05,14,5,0,0.00
2014-2-24,22.8,13.6,5.3,5.4,2.2,-2.0,85,62,38,30.24,30.16,12,5,0,0.00
2014-2-25,14.7,8.8,0.4,8.2,-1.5,-9.0,100,65,37,30.22,30.10,13,5,0,0.00
2014-2-26,13.9,4.8,-6.9,12.9,-5.8,-22.0,97,64,26,30.23,29.63,21,7,0,0.00
2014-2-27,9.7,0.9,-5.9,-2.3,-15.5,-32.1,82,48,18,30.18,29.70,24,6,0,0.00
2014-2-28,21.0,8.8,-8.2,18.2,1.0,-12.4,99,71,50,30.18,29.92,14,4,0,0.00
2014-3-1,17.9,10.0,3.4,17.0,3.1,-5.7,97,74,48,30.38,30.02,13,6,0,0.00
2014-3-2,6.1,0.9,-3.5,-5.7,-16.1,-29.2,67,46,20,30.47,30.36,13,6,0,0.00
2014-3-3,18.9,4.8,-9.7,1.2,-12.2,-31.8,76,48,13,30.52,30.31,9,3,0,0.00
2014-3-4,26.7,14.4,8.5,13.9,6.2,-7.0,95,73,30,30.29,30.15,7,3,0,0.00
2014-3-5,22.4,14.4,1.6,13.0,7.8,1.3,100,77,47,30.46,30.24,11,4,0,0.00
2014-3-6,27.4,14.1,-0.5,15.4,8.1,-0.5,100,80,43,30.44,30.00,11,3,0,0.00
2014-3-7,44.3,31.4,16.3,30.0,21.0,12.6,91,68,34,30.00,29.83,11,5,0,0.00
2014-3-8,34.8,29.3,25.2,28.6,17.6,8.6,86,63,40,30.22,30.01,9,5,0,0.00
2014-3-9,38.7,32.9,17.1,33.3,21.1,10.5,97,63,42,30.15,29.74,17,7,0,0.00
2014-3-10,57.6,46.0,36.7,35.9,30.3,21.8,93,58,28,29.75,29.60,11,3,0,0.00
2014-3-11,44.5,39.5,33.9,37.5,32.9,27.4,100,78,55,29.83,29.67,10,2,0,0.00
2014-3-12,34.1,24.2,11.0,30.6,13.8,4.4,97,65,42,30.09,29.80,13,5,0,0.00
2014-3-13,37.4,26.3,11.8,36.3,18.9,6.0,100,74,49,30.08,29.73,15,5,0,0.00
2014-3-14,49.5,41.0,35.8,38.0,28.5,21.3,100,63,34,29.84,29.52,16,6,0,0.00
2014-3-15,40.5,30.9,24.6,25.3,17.4,9.8,82,58,31,30.28,29.83,15,4,0,0.00
2014-3-16,25.7,17.7,9.3,18.2,6.8,1.7,77,62,46,30.41,30.13,14,6,0,0.00
2014-3-17,36.5,24.1,10.0,24.7,13.2,6.0,100,67,32,30.14,29.73,15,5,0,0.00
2014-3-18,46.6,35.3,26.0,35.8,27.8,23.0,100,76,44,29.85,29.69,15,5,0,0.04
2014-3-19,37.9,34.0,31.9,36.4,30.5,18.4,100,88,56,29.94,29.59,18,5,0,0.12
2014-3-20,45.0,33.7,25.1,28.9,22.7,13.9,100,68,33,30.01,29.91,11,2,0,0.00
2014-3-21,48.8,36.6,24.3,37.2,27.9,21.8,100,73,44,29.98,29.71,20,4,0,0.00
2014-3-22,37.5,37.2,36.9,24.8,24.7,24.1,60,60,60,29.89,29.87,17,12,0,0.00
2014-3-23,27.8,23.2,18.2,8.1,3.1,-3.8,59,42,31,30.40,30.31,11,4,0,0.00
2014-3-24,37.1,24.9,13.6,26.8,11.5,-2.4,100,60,24,30.34,29.99,14,4,0,0.00
2014-3-25,24.8,18.2,9.5,23.5,6.2,-3.2,100,62,33,30.20,29.99,17,6,0,0.00
2014-3-26,36.6,24.1,7.3,20.2,12.0,4.4,100,64,35,30.25,29.87,18,6,0,0.00
2014-3-27,46.2,38.6,33.8,46.2,35.7,18.8,100,91,46,29.87,29.40,15,7,0,0.35
2014-3-28,41.9,34.8,30.5,40.1,28.9,21.4,100,81,49,30.15,29.42,15,5,0,0.08
2014-3-29,45.8,36.0,27.8,31.1,23.9,15.0,100,65,35,30.25,30.15,10,3,0,0.00
2014-3-30,57.0,42.5,24.7,37.6,27.0,17.1,90,57,33,30.21,29.92,15,6,0,0.00
2014-3-31,64.3,53.2,41.0,37.7,33.9,30.9,85,50,32,29.95,29.59,26,10,0,0.00
2014-4-1,53.9,35.1,25.3,39.1,21.0,12.9,76,57,38,30.05,29.58,17,8,0,0.00
2014-4-2,49.6,35.3,21.0,30.5,21.4,13.0,100,62,32,30.16,30.04,11,4,0,0.00
2014-4-3,38.8,36.2,34.4,34.6,24.2,18.7,99,62,51,30.05,29.65,18,7,0,0.00
2014-4-4,37.7,34.0,32.4,34.7,30.1,24.3,100,86,67,29.96,29.46,20,7,0,0.08
2014-4-5,53.8,39.2,24.6,31.3,21.6,8.0,100,56,20,30.15,29.96,10,3,0,0.00
2014-4-6,60.9,47.2,31.5,32.4,27.3,21.7,86,49,26,30.07,29.89,12,5,0,0.00
2014-4-7,60.6,48.1,38.2,47.0,34.2,21.4,100,62,24,29.90,29.64,10,3,0,0.04
2014-4-8,58.7,47.1,37.4,43.6,31.8,21.3,99,60,28,29.91,29.66,15,5,0,0.00
2014-4-9,64.1,48.4,26.5,35.2,22.0,8.0,100,43,13,29.97,29.71,13,5,0,0.00
2014-4-10,63.3,54.9,44.0,33.7,18.4,-7.3,50,27,6,29.91,29.61,18,5,0,0.00
2014-4-11,67.4,53.1,37.4,33.7,22.3,-1.2,60,34,8,29.98,29.89,13,3,0,0.00
2014-4-12,59.4,49.3,44.1,48.4,35.5,24.9,100,61,43,29.96,29.68,17,5,0,0.04
2014-4-13,51.5,46.8,41.4,50.2,46.3,41.4,100,98,84,29.79,29.49,18,5,0,2.72
2014-4-14,41.2,31.1,25.0,41.2,26.6,14.9,100,84,64,29.99,29.47,19,9,0,0.28
2014-4-15,38.5,27.1,15.7,26.8,12.6,2.5,100,58,28,30.14,29.98,13,3,0,0.04
2014-4-16,51.3,38.9,26.3,25.2,21.5,16.4,78,51,33,30.19,29.98,21,8,0,0.00
2014-4-17,55.6,45.0,34.5,35.1,29.1,23.0,95,55,34,30.25,29.94,15,6,0,0.00
2014-4-18,55.7,40.9,28.9,34.1,25.4,15.3,100,61,24,30.34,30.24,10,2,0,0.00
2014-4-19,66.5,49.2,32.3,35.7,26.5,19.8,73,45,22,30.34,30.12,15,6,0,0.00
2014-4-20,78.5,61.0,50.5,54.6,37.1,27.3,98,44,18,30.14,29.91,14,4,0,0.00
2014-4-21,69.2,60.4,52.7,57.3,48.9,28.2,99,68,38,29.92,29.77,13,3,0,0.04
2014-4-22,56.4,46.5,37.2,30.4,22.9,11.4,65,42,18,30.05,29.86,16,7,0,0.00
2014-4-23,56.1,42.4,27.6,34.6,24.1,7.6,100,56,17,30.13,29.96,11,2,0,0.12
2014-4-24,55.0,44.8,34.2,48.7,37.1,23.9,100,75,51,30.05,29.62,12,4,0,0.39
2014-4-25,66.5,53.1,41.3,49.0,34.0,16.7,100,56,17,29.83,29.66,19,5,0,0.04
2014-4-26,51.9,43.8,35.9,34.2,27.1,20.3,79,53,36,29.99,29.83,16,6,0,0.00
2014-4-27,51.0,43.7,39.7,40.2,31.5,24.1,91,64,35,30.03,29.81,17,8,0,0.24
2014-4-28,48.7,44.2,39.8,43.6,36.8,30.4,99,76,52,29.84,29.58,19,9,0,0.98
2014-4-29,49.7,44.5,39.8,49.7,43.7,38.2,100,97,82,29.61,29.47,11,4,0,0.39
2014-4-30,49.3,45.2,41.4,47.8,40.2,31.4,100,84,57,29.73,29.60,12,4,0,0.00
2014-5-1,51.0,43.5,38.7,45.0,39.6,31.8,100,87,54,29.78,29.60,11,3,0,0.04
2014-5-2,52.4,47.1,43.7,46.5,39.7,32.2,100,77,49,29.78,29.61,9,3,0,0.04
2014-5-3,63.0,50.9,42.9,46.7,35.5,22.1,100,63,22,29.87,29.60,15,4,0,0.00
2014-5-4,60.2,49.8,41.6,31.2,21.0,1.7,63,35,10,30.02,29.86,11,4,0,0.00
2014-5-5,58.9,49.1,41.6,33.6,26.7,20.0,70,44,24,30.01,29.90,12,5,0,0.00
2014-5-6,62.8,50.6,37.2,35.3,29.6,22.5,87,47,29,30.00,29.88,14,6,0,0.00
2014-5-7,62.0,53.2,47.2,49.4,38.5,28.6,86,58,43,29.88,29.76,15,6,0,0.00
2014-5-8,82.9,69.7,50.2,58.2,51.1,43.1,99,56,26,29.82,29.67,13,4,0,0.00
2014-5-9,70.6,60.2,48.2,60.8,44.9,32.7,88,59,34,29.82,29.58,17,6,0,0.00
2014-5-10,74.4,59.1,39.7,50.0,35.6,19.4,100,51,16,29.90,29.82,7,1,0,0.00
2014-5-11,78.7,65.3,50.8,61.8,47.9,35.4,94,56,28,29.90,29.83,10,3,0,0.31
2014-5-12,77.5,68.3,61.5,67.4,62.9,56.3,100,84,51,29.87,29.72,11,4,0,1.06
2014-5-13,65.1,54.9,44.0,65.1,46.9,31.0,100,77,46,30.09,29.75,13,4,0,0.04
2014-5-14,57.1,49.6,40.1,42.4,31.2,20.6,100,54,26,30.17,29.97,11,2,0,0.00
2014-5-15,54.7,46.7,38.6,37.1,28.9,19.5,93,53,27,29.99,29.91,14,5,0,0.08
2014-5-16,52.2,43.9,36.0,38.9,24.6,11.2,100,51,22,30.00,29.95,9,2,0,0.00
2014-5-17,63.2,49.0,35.5,34.2,22.4,7.1,85,43,13,30.04,29.98,11,3,0,0.00
2014-5-19,64.1,58.0,52.2,49.3,39.9,30.2,81,53,33,30.10,29.81,21,6,0,0.20
2014-5-20,86.6,70.3,58.0,62.3,49.1,37.8,89,51,22,29.88,29.77,10,2,0,0.00
2014-5-21,82.7,69.2,56.3,63.5,44.6,15.6,100,52,9,29.96,29.78,14,3,0,0.00
2014-5-22,72.7,61.8,50.5,44.9,37.0,26.0,81,43,21,30.09,29.96,11,3,0,0.00
2014-5-23,70.7,59.8,44.4,50.3,37.3,26.8,100,48,24,30.18,30.07,8,2,0,0.00
2014-5-24,76.1,61.4,41.9,47.6,35.3,16.7,100,47,13,30.19,30.05,8,1,0,0.00
2014-5-25,82.8,68.7,46.9,52.7,38.5,25.1,100,41,13,30.09,29.92,9,1,0,0.00
2014-5-26,85.5,72.7,66.7,68.4,56.8,44.5,99,61,30,29.97,29.88,10,2,0,0.20
2014-5-27,85.6,70.1,60.9,70.0,62.6,42.4,100,82,26,29.93,29.84,11,2,0,1.22
2014-5-28,72.6,63.4,54.2,60.9,42.0,30.8,100,50,23,30.03,29.89,9,3,0,0.00
2014-5-29,80.5,66.6,51.5,58.7,44.8,34.6,100,51,21,30.10,30.00,8,2,0,0.00
2014-5-30,83.2,69.9,50.6,59.4,43.7,30.8,100,48,17,30.15,30.06,8,2,0,0.00
2014-5-31,86.1,73.3,54.2,53.7,41.8,27.1,91,38,13,30.13,29.96,12,3,0,0.00
2014-6-1,87.9,74.3,67.5,68.9,54.2,44.0,100,54,26,30.00,29.80,11,3,0,1.85
2014-6-2,80.8,72.5,63.4,70.2,59.4,47.0,100,68,33,29.84,29.70,15,3,0,1.02
2014-6-3,77.5,68.1,60.5,53.8,42.4,29.9,69,42,21,29.93,29.77,13,3,0,0.00
2014-6-4,70.9,64.3,54.4,59.6,52.4,43.1,100,67,39,29.90,29.78,6,1,0,0.08
2014-6-5,79.1,66.5,51.1,64.6,40.6,21.0,100,49,14,29.95,29.89,6,1,0,0.00
2014-6-6,82.5,70.5,58.3,57.5,40.7,30.3,72,37,17,29.95,29.89,7,1,0,0.00
2014-6-7,82.0,67.4,55.1,61.6,47.4,30.9,100,56,19,29.94,29.86,18,1,0,0.39
2014-6-8,71.7,62.3,55.3,61.3,46.5,33.2,100,63,27,30.01,29.89,9,3,0,0.00
2014-6-9,77.4,63.8,47.2,48.7,41.3,31.2,96,47,26,30.01,29.89,8,2,0,0.00
2014-6-10,68.9,63.0,55.9,49.3,42.8,37.5,60,48,37,29.92,29.82,8,3,0,0.00
2014-6-11,71.6,63.5,54.5,59.5,51.9,45.0,100,68,45,29.82,29.72,15,4,0,0.00
2014-6-12,75.8,64.7,51.7,63.4,45.6,35.2,100,57,27,29.87,29.71,13,3,0,0.00
2014-6-13,73.4,61.1,50.5,47.8,29.4,6.6,83,35,8,29.96,29.85,14,4,0,0.00
2014-6-14,78.7,66.4,49.0,49.6,36.2,22.7,93,40,15,30.02,29.88,13,3,0,0.00
2014-6-15,84.6,70.3,59.3,59.7,45.9,38.7,76,43,28,29.89,29.71,14,4,0,0.00
2014-6-16,85.8,75.7,58.0,65.8,50.7,34.1,100,49,18,29.98,29.78,7,2,0,0.00
2014-6-17,85.2,74.0,65.5,71.8,58.9,43.1,100,66,26,29.88,29.67,12,2,0,0.31
2014-6-18,78.7,70.6,61.9,70.6,60.7,47.6,100,73,38,29.98,29.79,18,3,0,1.02
2014-6-19,73.5,67.1,62.8,67.0,62.4,54.2,100,86,56,30.07,29.93,10,3,0,0.67
2014-6-20,82.9,71.7,63.1,68.8,62.0,49.7,100,76,37,29.95,29.89,7,1,0,1.69
2014-6-21,83.1,69.2,62.3,69.0,62.3,52.3,100,81,39,29.92,29.84,8,2,0,0.00
2014-6-22,81.6,70.7,60.4,71.5,61.3,48.8,100,76,35,29.90,29.80,7,1,0,0.16
2014-6-23,85.4,72.1,64.4,70.5,60.8,43.7,100,73,28,29.85,29.78,5,1,0,0.00
2014-6-24,83.6,74.2,64.4,70.7,55.9,40.5,100,60,23,29.89,29.81,8,1,0,0.00
2014-6-25,74.6,67.3,62.5,66.4,60.2,50.5,100,80,48,29.99,29.88,7,2,0,0.00
2014-6-26,81.9,68.9,59.5,62.8,53.2,39.7,100,62,26,30.04,29.92,7,2,0,0.00
2014-6-27,85.1,74.7,62.8,63.1,55.8,48.4,88,55,30,29.96,29.87,14,4,0,0.00
2014-6-28,85.7,77.0,68.1,68.7,62.0,53.5,96,62,38,29.94,29.83,14,4,0,0.00
2014-6-29,82.6,76.4,64.1,73.6,59.1,49.9,100,58,36,29.90,29.77,15,4,0,1.06
2014-6-30,87.1,72.0,65.0,72.8,64.6,53.8,100,81,34,29.82,29.53,12,3,0,1.26
2014-7-1,75.2,70.8,64.9,65.5,52.3,43.6,100,58,35,29.67,29.61,14,4,0,0.00
2014-7-7,84.8,76.2,70.1,65.6,54.9,39.9,84,52,22,29.74,29.60,10,2,0,0.04
2014-7-8,78.0,69.1,61.7,65.1,53.0,39.1,100,62,27,29.82,29.58,12,3,0,0.08
2014-7-9,74.3,65.1,55.6,60.5,46.1,30.0,100,58,22,30.00,29.80,12,2,0,0.00
2014-7-10,81.5,69.1,51.8,59.1,47.3,30.4,100,53,19,30.12,30.00,6,1,0,0.00
2014-7-11,77.7,69.3,58.6,58.3,49.9,40.2,94,53,28,30.14,30.00,8,1,0,0.00
2014-7-12,79.4,72.1,65.0,72.3,62.5,52.2,100,73,44,30.02,29.82,7,1,0,0.16
2014-7-13,83.3,67.6,56.9,65.1,56.9,39.0,100,75,23,29.90,29.86,14,2,0,0.00
2014-7-14,76.6,64.3,55.0,60.1,44.9,30.5,100,56,22,29.88,29.80,19,2,0,0.04
2014-7-15,67.6,58.3,49.7,55.9,46.8,39.0,100,68,38,29.93,29.84,13,4,0,0.12
2014-7-16,72.8,60.4,47.6,56.3,41.8,26.1,100,60,19,30.00,29.91,8,1,0,0.04
2014-7-17,78.2,63.8,47.2,62.6,41.8,19.8,100,57,13,30.06,29.97,6,0,0,0.00
2014-7-18,80.5,67.3,52.9,60.3,48.8,34.3,100,59,22,30.11,30.00,6,1,0,0.00
2014-7-19,80.3,69.3,56.4,60.3,50.3,34.6,100,57,22,30.05,29.94,9,1,0,0.00
2014-7-20,83.6,70.4,56.5,61.2,52.6,40.5,100,59,25,30.01,29.92,7,1,0,0.00
2014-7-21,86.4,74.9,63.2,67.0,56.9,45.8,98,59,27,30.01,29.93,9,1,0,0.00
2014-7-22,91.7,79.8,71.0,68.0,60.7,53.8,88,55,33,29.99,29.87,12,3,0,0.00
2014-7-23,77.3,68.0,56.6,60.5,47.6,35.7,100,53,25,30.15,29.98,10,2,0,0.00
2014-7-24,79.5,65.8,50.5,58.1,43.0,26.8,100,52,18,30.14,29.93,6,0,0,0.00
2014-7-25,74.3,65.4,58.8,63.1,51.7,42.8,95,62,35,29.99,29.85,10,2,0,0.00
2014-7-26,81.8,71.8,62.5,71.3,59.5,47.0,100,68,35,29.87,29.73,7,1,0,0.00
2014-7-27,79.5,70.4,60.8,72.0,54.9,37.2,100,64,24,29.93,29.72,17,3,0,0.12
2014-7-28,72.0,63.5,53.2,54.2,43.3,31.5,95,53,24,30.08,29.92,11,3,0,0.00
2014-7-29,79.3,65.4,54.1,58.8,47.5,33.1,100,59,22,30.01,29.93,12,2,0,0.00
2014-7-30,76.9,64.8,54.6,58.9,47.4,31.8,100,60,22,30.02,29.93,9,1,0,0.00
2014-7-31,82.0,69.1,59.0,63.3,50.3,36.3,100,57,23,29.97,29.93,8,1,0,0.00
2014-8-1,85.7,68.5,56.0,65.0,51.2,31.4,100,67,17,30.06,29.95,7,1,0,0.59
2014-8-2,86.1,70.2,54.1,66.8,51.5,34.1,100,62,18,30.12,30.02,4,0,0,0.00
2014-8-3,84.2,72.3,60.5,69.7,56.1,39.1,100,64,22,30.09,29.98,8,1,0,0.04
2014-8-4,83.6,66.8,61.3,72.5,61.9,44.8,100,88,32,30.05,29.97,9,0,0,1.50
2014-8-5,80.6,68.0,62.4,65.7,58.2,43.6,100,76,31,30.04,29.97,6,1,0,0.00
2014-8-6,82.7,68.2,54.8,68.6,50.4,32.6,100,62,19,30.05,29.97,4,0,0,0.00
2014-8-7,82.7,68.9,54.2,61.6,45.8,32.7,100,51,19,30.07,29.98,8,2,0,0.00
2014-8-8,82.2,70.1,56.5,55.3,44.7,29.8,93,46,17,30.06,30.00,8,2,0,0.00
2014-8-9,80.6,69.2,59.2,60.5,47.7,32.6,100,52,21,30.10,30.01,7,2,0,0.00
2014-8-10,82.0,68.8,57.1,59.2,50.7,32.9,96,58,20,30.04,29.92,6,0,0,0.00
2014-8-11,84.8,69.2,60.2,64.6,54.0,32.7,100,65,20,29.94,29.78,13,1,0,0.20
2014-8-12,75.0,64.4,57.9,60.4,45.8,35.9,91,55,27,29.93,29.81,14,4,0,0.00
2014-8-13,80.3,66.6,55.0,55.3,47.8,37.9,95,56,24,30.00,29.91,13,2,0,0.00
2014-8-14,72.5,61.1,49.4,57.9,42.0,26.1,100,57,18,30.09,29.97,7,1,0,0.00
2014-8-15,81.4,65.6,45.9,60.1,46.6,32.2,100,59,20,30.02,29.89,11,1,0,0.00
2014-8-16,86.2,72.2,61.2,68.0,57.3,43.5,100,66,28,29.89,29.84,7,1,0,0.00
2014-8-17,77.6,67.5,61.4,66.8,53.8,41.4,100,66,31,29.98,29.89,8,3,0,0.00
2014-8-18,83.3,69.9,57.8,64.2,55.4,45.5,100,65,29,29.91,29.69,11,2,0,0.00
2014-8-19,82.7,71.9,63.3,68.0,57.6,42.6,100,67,27,29.76,29.64,9,1,0,0.59
2014-8-20,87.2,73.0,60.1,70.5,56.5,40.5,100,65,22,29.90,29.76,8,1,0,0.00
2014-8-21,77.5,71.0,66.2,73.2,68.0,60.1,100,91,60,29.93,29.86,8,1,0,0.28
2014-8-22,90.0,78.0,70.9,75.1,66.1,51.2,100,73,29,29.92,29.85,8,0,0,0.04
2014-8-23,79.5,74.5,72.4,74.5,70.6,61.0,100,89,59,29.96,29.88,7,2,0,0.00
2014-8-24,85.3,76.6,69.4,72.6,65.5,54.5,100,72,41,29.95,29.89,7,2,0,0.00
2014-8-25,78.8,72.4,66.4,77.3,67.7,56.6,100,87,49,30.02,29.89,12,1,0,0.83
2014-8-26,77.7,69.1,60.0,70.9,52.8,35.3,100,61,23,30.11,29.94,7,1,0,0.00
2014-8-27,78.9,67.1,56.4,64.3,51.3,35.2,100,64,26,30.14,30.03,5,0,0,0.00
2014-8-28,75.5,65.4,54.8,63.8,50.9,38.6,100,65,29,30.10,29.94,7,2,0,0.00
2014-8-29,86.5,73.8,62.2,68.7,60.7,50.7,100,68,33,29.94,29.78,8,2,0,0.00
2014-8-30,79.1,71.6,64.7,70.5,63.8,53.2,100,79,46,29.87,29.73,8,2,0,0.28
2014-8-31,85.9,71.1,58.9,70.2,58.8,43.1,100,73,26,29.90,29.77,7,1,0,0.00
2014-9-1,78.1,69.8,61.2,69.9,59.9,49.4,100,74,40,29.82,29.62,10,2,0,0.00
2014-9-2,79.1,66.2,55.5,65.9,52.1,31.7,100,69,20,29.90,29.82,7,1,0,0.00
2014-9-3,82.2,70.3,54.6,66.1,52.0,34.5,100,61,22,29.97,29.83,8,2,0,0.00
2014-9-4,83.0,74.7,65.7,72.0,61.8,49.8,100,67,37,29.89,29.80,12,3,0,0.94
2014-9-5,78.4,69.9,58.2,73.5,54.2,37.0,90,60,28,30.05,29.82,11,3,0,0.00
2014-9-6,75.0,61.7,49.0,57.5,44.3,26.9,100,62,21,30.14,30.04,10,2,0,0.00
2014-9-7,81.8,64.4,49.3,67.7,44.2,22.5,100,61,13,30.15,30.03,7,0,0,0.00
2014-9-8,76.0,64.9,52.3,59.6,46.6,30.9,100,59,22,30.06,29.90,11,1,0,0.00
2014-9-9,79.6,67.6,55.5,66.9,52.6,38.3,100,64,26,29.91,29.79,8,1,0,0.00
2014-9-10,76.0,63.4,48.3,70.8,58.1,37.1,100,84,60,29.89,29.46,22,5,0,0.47
2014-9-11,54.4,47.9,44.6,46.6,36.4,29.6,100,66,42,30.24,29.89,9,3,0,0.00
2014-9-12,46.6,42.7,35.7,44.4,40.7,34.8,100,93,68,30.33,30.23,6,1,0,0.20
2014-9-13,60.1,45.5,36.8,48.7,33.7,14.6,100,72,19,30.32,30.21,7,1,0,0.00
2014-9-14,66.7,53.8,36.6,46.2,36.3,23.4,100,58,24,30.25,30.06,10,2,0,0.00
2014-9-15,57.3,51.6,42.7,52.2,46.5,37.9,100,84,50,30.13,30.05,7,1,0,0.28
2014-9-16,64.9,50.8,36.3,56.1,36.3,18.8,100,68,20,30.17,30.00,7,1,0,0.04
2014-9-17,70.2,54.3,38.7,59.0,40.6,23.6,100,71,20,30.01,29.91,4,0,0,0.00
2014-9-18,64.7,53.9,46.2,57.6,47.7,35.0,100,83,43,30.14,29.97,7,2,0,0.00
2014-9-19,74.2,62.9,49.4,56.4,45.0,33.2,100,59,24,30.10,29.83,12,3,0,0.00
2014-9-20,77.7,67.6,59.9,65.1,55.9,45.5,100,69,34,29.86,29.68,10,2,0,0.08
2014-9-21,64.2,56.7,44.2,60.2,43.1,30.0,100,64,30,30.12,29.72,13,4,0,0.00
2014-9-22,68.5,53.2,36.3,52.8,38.7,22.9,100,68,22,30.23,30.11,7,1,0,0.00
2014-9-23,74.3,58.7,44.0,62.5,43.7,28.4,100,68,20,30.27,30.16,5,0,0,0.00
2014-9-24,73.2,60.8,47.5,52.4,44.7,32.7,100,62,24,30.29,30.17,8,1,0,0.00
2014-9-25,78.1,63.4,50.4,60.1,44.2,23.1,100,59,14,30.24,30.14,6,0,0,0.00
2014-9-26,79.9,64.3,47.4,61.1,44.7,28.4,100,59,17,30.23,30.13,5,1,0,0.00
2014-9-27,82.3,65.5,51.2,60.1,47.6,33.7,100,61,19,30.21,30.08,4,0,0,0.00
2014-9-28,82.0,65.3,51.6,62.2,49.4,32.7,100,68,19,30.13,29.98,4,0,0,0.00
2014-9-29,82.1,61.9,48.9,68.4,49.7,35.4,100,74,21,30.00,29.91,14,2,0,0.04
2014-9-30,50.3,45.9,42.3,47.9,39.3,33.7,100,78,56,30.04,29.95,9,3,0,0.00
2014-10-1,68.4,58.3,47.3,50.8,44.1,34.5,100,63,36,29.97,29.83,10,3,0,0.00
2014-10-2,70.3,63.5,58.1,65.2,57.8,47.1,98,83,51,29.85,29.56,6,1,0,0.08
2014-10-3,63.1,50.0,40.3,61.0,39.3,22.2,100,69,43,29.74,29.53,12,5,0,0.67
2014-10-4,46.4,40.3,35.2,39.1,30.9,22.1,100,71,48,29.70,29.59,13,3,0,0.08
2014-10-5,54.2,42.8,32.1,35.3,27.0,15.0,100,60,23,29.68,29.56,10,2,0,0.00
2014-10-6,58.8,49.9,42.0,45.1,28.5,12.3,99,48,19,29.58,29.51,8,2,0,0.00
2014-10-7,66.4,53.8,45.2,42.0,33.6,21.9,82,50,21,29.81,29.52,8,2,0,0.00
2014-10-8,64.9,51.0,38.6,42.7,29.4,16.4,100,52,17,29.98,29.81,14,2,0,0.00
2014-10-9,58.6,46.9,34.7,33.9,23.7,9.1,82,45,17,30.10,29.97,11,1,0,0.00
2014-10-10,58.1,44.1,32.0,38.8,26.6,10.6,100,60,16,30.18,30.08,7,1,0,0.00
2014-10-11,60.2,44.0,28.1,47.2,27.9,11.8,100,63,16,30.21,30.06,6,0,0,0.00
2014-10-12,61.9,49.2,32.8,49.8,32.8,21.8,100,61,22,30.06,29.84,10,2,0,0.04
2014-10-13,60.5,54.9,49.9,56.9,53.0,47.3,100,94,64,29.85,29.48,8,2,0,1.65
2014-10-14,61.6,54.1,49.6,61.4,53.1,43.6,100,97,77,29.72,29.41,13,4,0,0.31
2014-10-15,51.5,49.4,47.4,51.1,48.4,44.3,100,96,82,29.87,29.70,10,3,0,0.04
2014-10-16,65.8,54.5,48.3,52.0,44.3,31.0,100,74,31,29.85,29.55,7,1,0,0.00
2014-10-17,57.6,51.0,45.2,50.1,42.8,36.7,94,74,51,29.89,29.52,12,3,0,0.00
2014-10-18,51.5,43.6,30.6,38.9,32.2,21.8,100,67,33,30.13,29.88,12,3,0,0.00
2014-10-19,56.3,44.5,28.7,46.6,34.5,28.7,100,73,40,30.12,29.80,11,2,0,0.00
2014-10-20,59.7,51.9,44.9,47.2,36.7,28.1,100,60,33,29.98,29.76,14,3,0,0.00
2014-10-21,48.8,41.3,30.4,39.6,33.6,28.3,100,76,49,30.23,29.97,9,2,0,0.00
2014-10-22,58.1,42.1,26.6,48.5,31.5,22.3,100,74,28,30.32,30.16,8,1,0,0.00
2014-10-23,52.9,45.8,34.7,50.7,41.6,31.6,100,87,46,30.16,29.97,5,1,0,0.12
2014-10-24,61.3,52.8,47.7,53.9,47.7,39.8,100,85,50,30.00,29.87,8,1,0,0.00
2014-10-25,66.9,57.7,47.6,57.6,30.7,3.0,100,48,8,29.94,29.86,13,3,0,0.00
2014-10-26,63.2,51.8,33.4,32.8,20.0,1.2,83,33,9,29.99,29.78,7,1,0,0.00
2014-10-27,73.8,62.6,48.0,52.1,43.1,29.5,65,49,38,29.79,29.51,10,3,0,0.08
2014-10-28,64.4,50.2,44.0,52.8,31.7,20.7,74,50,30,29.89,29.56,12,5,0,0.00
2014-10-29,47.3,41.0,29.2,34.9,26.7,20.9,100,59,38,30.08,29.88,13,4,0,0.00
2014-10-30,53.0,41.4,30.2,40.2,30.9,21.8,100,71,34,30.07,29.99,11,1,0,0.00
2014-10-31,43.2,33.9,26.5,30.3,16.5,9.4,95,50,31,30.39,30.01,20,8,0,0.00
2014-11-1,44.0,31.5,20.6,29.2,18.0,6.3,99,61,24,30.46,30.30,7,1,0,0.00
2014-11-2,53.3,40.9,27.7,27.9,17.9,1.0,98,48,12,30.31,30.03,14,6,0,0.00
2014-11-3,58.9,50.1,38.7,55.1,29.3,16.3,99,46,30,30.04,29.81,10,3,0,0.16
2014-11-4,58.7,48.5,39.6,56.3,35.2,22.7,99,62,35,29.97,29.76,13,4,0,0.04
2014-11-5,52.9,44.6,33.1,44.5,31.6,20.8,100,63,34,30.06,29.78,9,2,0,0.04
2014-11-6,45.1,37.4,30.6,40.7,28.5,18.8,100,72,48,30.20,29.77,16,6,0,0.04
2014-11-7,44.9,37.1,28.3,33.2,22.5,13.1,96,58,32,30.16,29.70,11,3,0,0.00
2014-11-8,45.3,39.1,33.4,35.9,22.8,13.7,86,53,30,29.91,29.67,18,5,0,0.04
2014-11-9,49.5,40.5,34.3,34.5,24.9,18.1,97,56,31,29.88,29.70,13,3,0,0.04
2014-11-10,56.0,43.2,34.0,40.7,36.4,32.3,100,80,42,29.82,29.46,11,4,0,0.00
2014-11-11,38.9,32.0,24.7,38.2,25.0,12.4,100,77,50,30.09,29.58,20,8,0,0.04
2014-11-12,28.3,23.2,18.3,13.9,10.6,4.2,75,58,41,30.22,30.08,12,4,0,0.00
2014-11-13,27.3,23.5,21.2,18.6,12.1,7.9,85,62,46,30.25,30.20,14,4,0,0.00
2014-11-14,24.8,19.6,8.7,16.0,10.7,3.3,100,71,41,30.31,30.23,7,1,0,0.00
2014-11-15,31.5,19.2,7.0,20.7,11.1,-3.2,100,76,28,30.34,30.15,5,0,0,0.00
2014-11-16,27.4,20.7,7.9,21.7,15.6,3.0,100,82,63,30.15,29.88,11,2,0,0.00
2014-11-17,16.7,10.2,5.7,8.1,2.4,-4.3,100,72,41,29.91,29.80,10,4,0,0.00
2014-11-18,9.6,9.2,8.8,4.8,4.2,3.7,81,80,78,29.90,29.89,7,4,0,0.00
2014-11-22,49.6,41.7,32.8,49.6,41.7,32.8,100,100,98,29.93,29.76,10,3,0,0.00
2014-11-23,49.2,47.6,44.8,49.2,47.5,44.8,100,100,93,29.76,29.14,13,4,0,0.79
2014-11-24,44.8,31.9,20.5,44.7,31.2,18.0,100,97,90,29.80,29.09,10,4,0,0.08
2014-11-25,24.1,18.7,9.1,18.4,13.7,7.1,100,82,52,30.16,29.80,7,2,0,0.00
2014-11-26,27.2,15.1,7.1,23.8,13.2,5.9,100,92,60,30.21,30.10,7,1,0,0.00
2014-11-27,22.5,15.2,0.4,21.7,9.4,-0.7,100,79,51,30.40,30.21,11,3,0,0.00
2014-11-28,28.4,20.4,10.6,28.4,13.7,4.2,100,76,52,30.34,29.82,11,4,0,0.00
2014-11-29,44.3,36.2,24.8,42.3,32.2,24.1,100,87,52,29.83,29.51,8,3,0,0.08
2014-11-30,42.0,41.3,40.6,42.0,41.3,40.6,100,100,100,29.59,29.58,4,2,0,0.00
2014-12-1,13.6,8.4,4.5,0.1,-7.1,-15.7,75,50,29,30.67,30.53,15,3,0,0.00
2014-12-2,33.7,22.8,8.1,18.9,10.8,-0.5,82,61,38,30.54,29.97,10,3,0,0.00
2014-12-3,32.5,24.6,17.7,20.5,9.1,-1.1,90,55,25,30.34,29.96,10,3,0,0.00
2014-12-4,28.6,22.9,15.0,22.3,11.1,0.4,89,62,36,30.41,30.20,9,2,0,0.00
2014-12-5,35.3,32.1,28.5,33.1,28.4,21.1,100,86,69,30.27,30.14,7,2,0,0.00
2014-12-6,34.1,27.6,18.9,29.0,20.1,14.0,100,75,46,30.66,30.27,10,3,0,0.00
2014-12-7,36.0,27.2,16.3,24.3,17.0,5.8,100,70,32,30.63,30.18,13,4,0,0.00
2014-12-8,34.1,32.2,30.7,34.1,31.8,24.3,100,98,78,30.19,29.92,14,2,0,0.28
2014-12-9,34.3,30.5,26.3,31.1,25.1,20.4,100,81,59,30.40,30.11,13,4,0,0.04
2014-12-10,26.6,23.5,21.2,20.7,18.9,15.6,88,82,69,30.41,30.26,6,2,0,0.00
2014-12-11,30.4,23.4,19.9,23.8,20.0,14.1,100,88,57,30.27,30.18,7,2,0,0.00
2014-12-12,34.8,31.0,23.5,34.8,30.5,23.5,100,98,91,30.28,30.18,9,2,0,0.00
2014-12-13,43.5,38.5,31.8,43.5,38.4,31.8,100,100,98,30.19,30.02,7,1,0,0.00
2014-12-14,46.0,44.0,41.4,45.9,44.0,41.1,100,100,100,30.04,29.93,7,2,0,0.00
2014-12-15,45.0,43.9,41.8,45.0,43.9,41.8,100,100,100,29.93,29.68,10,3,0,0.20
2014-12-16,41.8,33.9,24.3,41.8,29.3,13.5,100,84,61,30.13,29.66,18,6,0,0.12
2014-12-17,24.7,21.7,15.9,14.5,11.8,9.1,89,66,55,30.28,30.12,15,4,0,0.00
2014-12-18,26.4,22.4,13.5,24.2,18.9,12.8,100,87,68,30.29,30.20,6,0,0,0.00
2014-12-19,26.7,25.1,21.4,22.8,17.8,13.9,100,74,61,30.29,30.22,5,0,0,0.00
2014-12-20,29.5,27.4,23.7,27.2,24.2,21.0,96,88,74,30.26,30.16,6,2,0,0.00
2014-12-21,35.7,33.2,29.1,32.1,29.6,26.0,100,87,74,30.17,29.92,13,6,0,0.00
2014-12-22,38.0,34.5,32.5,38.0,31.7,24.6,100,90,64,29.93,29.61,10,4,0,0.24
2014-12-23,42.1,39.0,36.3,42.1,38.1,35.1,100,97,80,29.77,29.52,9,2,0,0.35
2014-12-24,36.4,34.1,32.6,36.3,33.5,30.4,100,98,87,29.75,29.52,8,2,0,0.04
2014-12-25,41.9,35.4,30.7,33.5,26.9,21.1,98,72,50,29.93,29.64,10,4,0,0.00
2014-12-26,46.6,38.1,32.0,37.9,32.3,24.0,100,82,44,29.99,29.90,7,1,0,0.00
2014-12-27,44.9,35.0,23.5,44.8,30.1,15.8,100,83,60,30.11,29.86,12,3,0,0.04
2014-12-28,32.1,24.2,15.1,19.0,14.2,7.0,96,68,41,30.26,30.08,7,1,0,0.00
2014-12-29,23.2,17.4,6.2,13.0,4.2,-6.9,84,58,27,30.57,30.25,12,4,0,0.00
2014-12-30,15.1,6.2,0.8,-0.2,-11.9,-29.8,78,48,13,30.71,30.56,12,4,0,0.00
2014-12-31,17.9,8.0,-3.0,3.2,-6.1,-16.4,82,55,24,30.58,30.01,13,4,0,0.00
2015-1-1,30.2,19.8,11.5,17.9,7.7,2.0,79,60,37,30.10,29.89,10,3,0,0.00
2015-1-2,34.5,24.5,14.3,21.6,11.5,-11.4,93,61,17,30.29,30.09,6,1,0,0.00